Zapata, TX

9:05 PM CDT on May 29, 2017 (GMT -0500)
Zapata

Weather History for KAPY - February, 2013

Change the Weather History Date:

Thursday, February 21, 2013

  Actual Average (KLRD) Record (KLRD)
Temperature  
Mean Temperature 68 °F -  
Max Temperature 80 °F 71 °F 100 °F (1996)
Min Temperature 55 °F 51 °F 30 °F (1904)
Cooling Degree Days 2    
Growing Degree Days 18 (Base 50)    
Moisture  
Dew Point 52 °F    
Average Humidity 59    
Maximum Humidity 94    
Minimum Humidity 19    
Precipitation  
Precipitation 0.00 in - - ()
Sea Level Pressure  
Sea Level Pressure 29.69 in    
Wind  
Wind Speed 9 mph (ENE)    
Max Wind Speed 17 mph    
Max Gust Speed 23 mph    
Visibility 9 miles    
Events      
Averages and records for this station are not official NWS values.
T = Trace of Precipitation, MM = Missing Value Source: NWS Daily Summary

Daily Weather History Graph

Daily Weather History Graph

Search for Another Location

Airport or City:

Trip Planner

Search our weather history database for the weather conditions in past years. The results will help you decide how hot, cold, wet, or windy it might be!

Date:

Astronomy

Feb. 21, 2013 Rise Set
Actual Time 7:08 AM CST 6:33 PM CST
Civil Twilight 6:44 AM CST 6:56 PM CST
Nautical Twilight 6:17 AM CST 7:24 PM CST
Astronomical Twilight 5:50 AM CST 7:51 PM CST
Moon 3:03 PM CST (2/21) 3:59 AM CST (2/21)
Length of Visible Light 12h 12m
Length of Day
11h 25m
Waxing Gibbous, 84% of the Moon is Illuminated
Feb 21
Waxing Gibbous
Feb 25
Full
Mar 4
Last Quarter
Mar 11
New
Mar 19
First Quarter

Hourly Weather History & Observations

Time (CST) Temp. Heat Index Dew Point Humidity Pressure Visibility Wind Dir Wind Speed Gust Speed Precip Events Conditions
12:15 AM 71.1 °F - 62.6 °F 75% 29.60 in 10.0 mi SE 11.5 mph 20.7 mph N/A   Clear
12:35 AM 70.9 °F - 62.6 °F 75% 29.61 in 10.0 mi SSE 13.8 mph 18.4 mph N/A   Scattered Clouds
12:55 AM 70.9 °F - 62.8 °F 75% 29.60 in 10.0 mi SE 12.7 mph 19.6 mph N/A   Clear
1:15 AM 70.7 °F - 62.8 °F 76% 29.60 in 10.0 mi SE 12.7 mph 20.7 mph N/A   Clear
1:35 AM 70.7 °F - 63.0 °F 76% 29.60 in 10.0 mi SSE 10.4 mph - N/A   Clear
1:55 AM 70.2 °F - 63.0 °F 78% 29.60 in 10.0 mi SE 9.2 mph - N/A   Clear
2:15 AM 69.8 °F - 63.0 °F 79% 29.59 in 10.0 mi SE 9.2 mph - N/A   Clear
2:35 AM 69.8 °F - 63.0 °F 79% 29.59 in 10.0 mi SE 9.2 mph - N/A   Clear
2:55 AM 69.1 °F - 63.1 °F 81% 29.58 in 10.0 mi SE 6.9 mph - N/A   Clear
3:15 AM 68.4 °F - 63.1 °F 83% 29.58 in 10.0 mi SE 6.9 mph - N/A   Clear
3:35 AM 68.0 °F - 63.1 °F 84% 29.58 in 10.0 mi SE 8.1 mph - N/A   Clear
3:55 AM 68.0 °F - 63.5 °F 85% 29.57 in 10.0 mi SE 6.9 mph - N/A   Clear
4:15 AM 67.6 °F - 63.7 °F 87% 29.57 in 10.0 mi SE 6.9 mph - N/A   Clear
4:35 AM 67.1 °F - 63.5 °F 88% 29.57 in 7.0 mi SE 4.6 mph - N/A   Clear
4:55 AM 66.6 °F - 63.5 °F 90% 29.58 in 7.0 mi SE 4.6 mph - N/A   Clear
5:15 AM 65.8 °F - 63.1 °F 91% 29.58 in 7.0 mi SE 6.9 mph - N/A   Clear
5:55 AM 66.2 °F - 63.5 °F 91% 29.59 in 7.0 mi SE 9.2 mph - N/A   Clear
6:15 AM 65.5 °F - 63.0 °F 92% 29.58 in 7.0 mi SE 10.4 mph - N/A   Clear
6:35 AM 65.5 °F - 63.1 °F 92% 29.59 in 7.0 mi SE 8.1 mph - N/A   Clear
6:55 AM 64.9 °F - 62.6 °F 92% 29.60 in 5.0 mi East 5.8 mph - N/A   Clear
7:15 AM 64.4 °F - 62.2 °F 93% 29.61 in 5.0 mi East 5.8 mph - N/A   Clear
7:35 AM 64.2 °F - 62.2 °F 93% 29.62 in 3.0 mi East 4.6 mph - N/A   Clear
7:55 AM 64.6 °F - 62.8 °F 94% 29.64 in 4.0 mi East 3.5 mph - N/A   Clear
8:15 AM 65.3 °F - 63.1 °F 93% 29.64 in 4.0 mi SE 5.8 mph - N/A   Clear
8:35 AM 66.4 °F - 64.4 °F 93% 29.64 in 5.0 mi SSE 8.1 mph - N/A   Clear
8:55 AM 67.5 °F - 63.5 °F 87% 29.64 in 5.0 mi SSE 9.2 mph 18.4 mph N/A   Clear
9:15 AM 68.5 °F - 63.0 °F 82% 29.66 in 7.0 mi ESE 5.8 mph - N/A   Clear
9:35 AM 69.8 °F - 62.6 °F 78% 29.68 in 7.0 mi SSE 5.8 mph - N/A   Clear
9:55 AM 70.9 °F - 62.4 °F 75% 29.71 in 7.0 mi NW 8.1 mph 18.4 mph N/A   Scattered Clouds
10:15 AM 70.7 °F - 62.6 °F 75% 29.73 in 7.0 mi NNW 11.5 mph 20.7 mph N/A   Scattered Clouds
10:35 AM 71.4 °F - 62.1 °F 72% 29.73 in 10.0 mi NNW 11.5 mph 16.1 mph N/A   Mostly Cloudy
10:55 AM 71.8 °F - 61.5 °F 70% 29.74 in 10.0 mi NNW 13.8 mph - N/A   Mostly Cloudy
11:15 AM 73.6 °F - 60.8 °F 64% 29.74 in 10.0 mi North 9.2 mph - N/A   Scattered Clouds
11:35 AM 74.3 °F - 60.4 °F 62% 29.73 in 10.0 mi North 9.2 mph - N/A   Scattered Clouds
12:15 PM 76.1 °F - 59.0 °F 55% 29.73 in 10.0 mi North 16.1 mph 20.7 mph N/A   Clear
12:35 PM 77.4 °F - 58.6 °F 52% 29.72 in 10.0 mi North 15.0 mph 21.9 mph N/A   Clear
12:55 PM 78.1 °F - 58.3 °F 50% 29.72 in 10.0 mi NNW 13.8 mph 17.3 mph N/A   Clear
1:15 PM 78.1 °F - 59.0 °F 52% 29.71 in 10.0 mi NNW 13.8 mph 17.3 mph N/A   Clear
1:35 PM 79.5 °F - 58.5 °F 48% 29.70 in 10.0 mi North 8.1 mph 16.1 mph N/A   Clear
1:55 PM 80.8 °F 81.1 °F 57.9 °F 46% 29.69 in 10.0 mi NNW 16.1 mph - N/A   Clear
2:15 PM 80.4 °F 80.6 °F 56.7 °F 44% 29.69 in 10.0 mi North 16.1 mph 19.6 mph N/A   Clear
2:35 PM 80.1 °F 80.0 °F 53.8 °F 40% 29.69 in 10.0 mi North 17.3 mph 21.9 mph N/A   Clear
2:55 PM 79.2 °F - 50.4 °F 36% 29.69 in 10.0 mi NNW 15.0 mph 19.6 mph N/A   Clear
3:15 PM 79.3 °F - 46.9 °F 32% 29.69 in 10.0 mi North 15.0 mph 21.9 mph N/A   Clear
3:35 PM 79.7 °F - 44.1 °F 28% 29.69 in 10.0 mi North 16.1 mph 23.0 mph N/A   Clear
3:55 PM 79.3 °F - 40.5 °F 25% 29.68 in 10.0 mi North 16.1 mph 23.0 mph N/A   Clear
4:15 PM 78.8 °F - 37.6 °F 23% 29.69 in 10.0 mi North 16.1 mph 21.9 mph N/A   Clear
4:35 PM 77.9 °F - 36.7 °F 23% 29.70 in 10.0 mi North 12.7 mph 18.4 mph N/A   Clear
4:55 PM 77.7 °F - 36.3 °F 22% 29.72 in 10.0 mi North 13.8 mph - N/A   Clear
5:15 PM 77.2 °F - 33.8 °F 21% 29.72 in 10.0 mi North 13.8 mph 18.4 mph N/A   Clear
5:35 PM 76.8 °F - 32.0 °F 19% 29.72 in 10.0 mi NNE 9.2 mph 16.1 mph N/A   Clear
6:15 PM 74.7 °F - 30.4 °F 20% 29.76 in 10.0 mi NE 4.6 mph - N/A   Clear
6:35 PM 73.0 °F - 29.5 °F 20% 29.75 in 10.0 mi North 5.8 mph - N/A   Clear
6:55 PM 71.2 °F - 30.0 °F 22% 29.76 in 10.0 mi Calm Calm - N/A   Clear
7:15 PM 70.7 °F - 29.3 °F 21% 29.76 in 10.0 mi ENE 3.5 mph - N/A   Clear
7:35 PM 69.4 °F - 29.8 °F 23% 29.77 in 10.0 mi Calm Calm - N/A   Clear
7:55 PM 65.3 °F - 32.7 °F 30% 29.78 in 10.0 mi Calm Calm - N/A   Clear
8:15 PM 64.2 °F - 31.8 °F 30% 29.79 in 10.0 mi Calm Calm - N/A   Clear
8:35 PM 63.1 °F - 34.3 °F 34% 29.80 in 10.0 mi Calm Calm - N/A   Clear
8:55 PM 60.8 °F - 34.9 °F 38% 29.81 in 10.0 mi Calm Calm - N/A   Clear
9:15 PM 60.8 °F - 36.7 °F 41% 29.82 in 10.0 mi Calm Calm - N/A   Clear
9:35 PM 60.6 °F - 34.9 °F 38% 29.82 in 10.0 mi Calm Calm - N/A   Clear
9:55 PM 59.0 °F - 35.1 °F 41% 29.82 in 10.0 mi Calm Calm - N/A   Clear
10:15 PM 57.7 °F - 36.9 °F 46% 29.82 in 10.0 mi North 3.5 mph - N/A   Clear
10:35 PM 55.9 °F - 37.0 °F 49% 29.82 in 10.0 mi North 4.6 mph - N/A   Clear
10:55 PM 56.8 °F - 36.9 °F 47% 29.82 in 10.0 mi NW 3.5 mph - N/A   Clear
11:15 PM 57.2 °F - 36.5 °F 46% 29.82 in 10.0 mi NNW 4.6 mph - N/A   Clear
11:35 PM 56.7 °F - 35.6 °F 45% 29.83 in 10.0 mi North 3.5 mph - N/A   Clear
11:55 PM 55.6 °F - 35.4 °F 47% 29.83 in 10.0 mi Calm Calm - N/A   Clear